Iliamna, AK

6:19 AM AKST on February 24, 2017 (GMT -0900)
Iliamna

Weather History for PAIL - January, 2014

Change the Weather History Date:

Wednesday, January 1, 2014

  Actual Average Record
Temperature  
Mean Temperature 32 °F -  
Max Temperature 39 °F 25 °F 44 °F (2002)
Min Temperature 24 °F 14 °F -27 °F (1949)
Degree Days  
Heating Degree Days 34    
Moisture  
Dew Point 29 °F    
Average Humidity 96    
Maximum Humidity 100    
Minimum Humidity 79    
Precipitation  
Precipitation 0.12 in - - ()
Snow  
Snow 0.00 in - - ()
Snow Depth 5.00 in    
Sea Level Pressure  
Sea Level Pressure 29.22 in    
Wind  
Wind Speed 8 mph (WSW)    
Max Wind Speed 18 mph    
Max Gust Speed 34 mph    
Visibility 4 miles    
Events Rain , Snow    
Averages and records for this station are not official NWS values.
T = Trace of Precipitation, MM = Missing Value Source: NWS Daily Summary

Daily Weather History Graph

Daily Weather History Graph

Search for Another Location

Airport or City:

Trip Planner

Search our weather history database for the weather conditions in past years. The results will help you decide how hot, cold, wet, or windy it might be!

Date:

Astronomy

Jan. 01, 2014 Rise Set
Actual Time 10:19 AM AKST 4:27 PM AKST
Civil Twilight 9:23 AM AKST 5:23 PM AKST
Nautical Twilight 8:27 AM AKST 6:19 PM AKST
Astronomical Twilight 7:37 AM AKST 7:09 PM AKST
Moon 9:56 AM AKST (1/1) 5:52 PM AKST (1/1)
Length of Visible Light 7h 59m
Length of Day
6h 08m
New Moon, 0% of the Moon is Illuminated
Jan 1
New Moon
Jan 7
First Quarter
Jan 15
Full
Jan 23
Last Quarter
Jan 30
New

Hourly Weather History & Observations

Time (AKST) Temp. Windchill Dew Point Humidity Pressure Visibility Wind Dir Wind Speed Gust Speed Precip Events Conditions
12:53 AM 37.9 °F 28.2 °F 32.0 °F 79% 28.96 in 10.0 mi ENE 18.4 mph 34.5 mph 0.00 in   Overcast
1:53 AM 37.0 °F 27.0 °F 34.0 °F 89% 28.96 in 10.0 mi ENE 18.4 mph 27.6 mph 0.00 in Rain Light Rain
3:25 AM 35.6 °F 26.6 °F 33.8 °F 93% 28.94 in 10.0 mi ENE 13.8 mph 25.3 mph 0.00 in   Mostly Cloudy
3:53 AM 36.0 °F 29.6 °F 34.0 °F 93% 28.95 in 10.0 mi NE 8.1 mph - 0.00 in   Overcast
4:53 AM 37.0 °F 31.0 °F 34.0 °F 89% 28.96 in 10.0 mi ENE 8.1 mph - 0.00 in   Overcast
5:53 AM 36.0 °F 29.0 °F 34.0 °F 93% 28.96 in 10.0 mi NE 9.2 mph - 0.00 in   Overcast
6:53 AM 37.0 °F 31.0 °F 34.0 °F 89% 28.97 in 10.0 mi NE 8.1 mph - N/A   Overcast
7:53 AM 36.0 °F - 33.1 °F 89% 28.98 in 10.0 mi Calm Calm - 0.00 in   Overcast
8:29 AM 35.6 °F 31.7 °F 33.8 °F 93% 28.98 in 10.0 mi NNE 4.6 mph - 0.00 in Rain Light Rain
8:53 AM 35.1 °F 32.2 °F 33.1 °F 92% 29.00 in 10.0 mi NNW 3.5 mph - 0.01 in Rain Light Rain
9:53 AM 35.1 °F - 34.0 °F 96% 29.04 in 10.0 mi Calm Calm - 0.03 in Rain Light Rain
10:53 AM 33.1 °F 28.7 °F 33.1 °F 100% 29.08 in 5.0 mi SW 4.6 mph - 0.04 in Snow Light Snow
11:12 AM 33.8 °F 29.6 °F 33.8 °F 100% 29.08 in 1.8 mi SW 4.6 mph - 0.02 in Snow Light Snow
11:26 AM 33.8 °F - 33.8 °F 100% 29.09 in 1.0 mi Calm Calm - 0.03 in Snow Light Snow
11:53 AM 33.1 °F 26.9 °F 33.1 °F 100% 29.12 in 1.5 mi SW 6.9 mph - 0.05 in Snow Light Snow
12:16 PM 30.2 °F 19.8 °F 30.2 °F 100% 29.13 in 2.0 mi WSW 13.8 mph 24.2 mph 0.00 in Snow Light Snow
12:32 PM 30.2 °F 19.8 °F 30.2 °F 100% 29.14 in 1.2 mi WSW 13.8 mph 21.9 mph 0.00 in Snow Light Snow
12:49 PM 30.2 °F 18.9 °F 28.4 °F 93% 29.15 in 0.8 mi WSW 16.1 mph - 0.00 in Snow Light Snow
12:53 PM 28.9 °F 18.2 °F 28.9 °F 100% 29.17 in 0.8 mi WSW 13.8 mph - 0.00 in Snow Light Snow
1:00 PM 28.4 °F 18.5 °F 28.4 °F 100% 29.16 in 1.0 mi WSW 11.5 mph 24.2 mph 0.00 in Snow Light Snow
1:30 PM 28.4 °F 16.2 °F 26.6 °F 93% 29.18 in 0.8 mi WSW 17.3 mph 25.3 mph 0.00 in Snow Light Snow
1:45 PM 28.4 °F 19.7 °F 26.6 °F 93% 29.19 in 1.0 mi WSW 9.2 mph - 0.00 in Snow Light Snow
1:53 PM 28.0 °F 18.6 °F 27.0 °F 96% 29.21 in 0.8 mi WSW 10.4 mph - 0.00 in Snow Light Snow
2:20 PM 28.4 °F 21.2 °F 26.6 °F 93% 29.21 in 1.0 mi WSW 6.9 mph 17.3 mph 0.00 in Snow Light Snow
2:29 PM 26.6 °F 20.0 °F 26.6 °F 100% 29.22 in 1.5 mi WSW 5.8 mph - 0.01 in Snow Light Snow
2:53 PM 28.0 °F 22.8 °F 27.0 °F 96% 29.24 in 1.2 mi WSW 4.6 mph - 0.01 in Snow Light Snow
3:17 PM 28.4 °F 24.6 °F 28.4 °F 100% 29.24 in 1.2 mi Variable 3.5 mph - 0.00 in Snow Light Snow
3:33 PM 28.4 °F - 28.4 °F 100% 29.25 in 1.0 mi Calm Calm - 0.00 in Snow Light Snow
3:53 PM 28.0 °F - 28.0 °F 100% 29.28 in 1.0 mi Calm Calm - 0.00 in Snow Light Snow
4:00 PM 28.4 °F - 28.4 °F 100% 29.27 in 0.8 mi Calm Calm - 0.00 in Snow Light Snow
4:40 PM 28.4 °F - 28.4 °F 100% 29.30 in 0.8 mi Calm Calm - 0.00 in Snow Light Snow
4:53 PM 28.0 °F - 28.0 °F 100% 29.32 in 1.0 mi Calm Calm - 0.00 in Snow Light Snow
5:16 PM 26.6 °F - 26.6 °F 100% 29.32 in 2.0 mi Calm Calm - 0.00 in Snow Light Snow
5:53 PM 27.0 °F 21.6 °F 27.0 °F 100% 29.36 in 2.0 mi West 4.6 mph - 0.00 in Snow Light Snow
6:02 PM 26.6 °F - 26.6 °F 100% 29.36 in 3.0 mi Calm Calm - 0.00 in   Overcast
6:12 PM 26.6 °F 22.6 °F 26.6 °F 100% 29.36 in 4.0 mi Variable 3.5 mph - 0.00 in Snow Light Snow
6:28 PM 26.6 °F - 26.6 °F 100% 29.38 in 5.0 mi Calm Calm - 0.00 in Snow Light Snow
6:45 PM 26.6 °F 22.6 °F 26.6 °F 100% 29.39 in 4.0 mi SW 3.5 mph - 0.01 in Snow Light Snow
6:53 PM 26.1 °F - 26.1 °F 100% 29.41 in 3.0 mi Calm Calm - 0.01 in Snow Light Snow
7:47 PM 26.6 °F - 24.8 °F 93% 29.42 in 3.0 mi Calm Calm - 0.00 in Snow Light Snow
7:53 PM 26.1 °F - 25.0 °F 96% 29.44 in 3.0 mi Calm Calm - 0.00 in Snow Light Snow
8:20 PM 26.6 °F - 26.6 °F 100% 29.45 in 2.0 mi Calm Calm - 0.01 in Snow Light Snow
8:53 PM 26.1 °F - 26.1 °F 100% 29.47 in 2.0 mi Calm Calm - 0.01 in Snow Light Snow
9:27 PM 26.6 °F - 24.8 °F 93% 29.49 in 3.0 mi Calm Calm - 0.00 in Snow Light Snow
9:53 PM 25.0 °F - 25.0 °F 100% 29.52 in 2.5 mi Calm Calm - 0.00 in Snow Light Snow
10:04 PM 24.8 °F - 24.8 °F 100% 29.51 in 5.0 mi Calm Calm - 0.00 in Snow Light Snow
10:53 PM 25.0 °F - 25.0 °F 100% 29.57 in 10.0 mi Calm Calm - 0.00 in   Overcast
11:53 PM 25.0 °F 20.7 °F 25.0 °F 100% 29.61 in 10.0 mi SW 3.5 mph - N/A   Overcast